User: anonymous   Login
Location: Étouvelles
(49.5207°N, 3.5808°E)
Time: 15:41:54
(UTC+00:00)
Language:

Okean O Rocket - Orbit

View from above orbital plane
View from above orbital plane
View from above satellite
View from above satellite

Ground track
Ground track

The orbit data is extracted from the following two-line orbital elements,

1 25861U 99039B   23152.09284733  .00000545  00000-0  80501-4 0  9993
2 25861  98.1390 189.2102 0014095 293.1657  66.8069 14.79327769287163
Epoch (UTC): 01 June 2023 02:13:42
Eccentricity: 0.0014095
inclination: 98.1390°
perigee height: 621 km
apogee height: 641 km
right ascension of ascending node: 189.2102°
argument of perigee: 293.1657°
revolutions per day: 14.79327769
mean anomaly at epoch: 66.8069°
orbit number at epoch: 28716

The dashed part of the orbit path shows where the satellite is in the earth's shadow,  

DLR